Location: Beugnon
(47.6222°N, 3.7850°E)
Time: 21:39:44
(UTC+00:00)

COSMOS 2455 - Pass Details

Date: 09 April 2020
Orbit: 900 x 910 km, 67.1° (Epoch: 27 May)

Event Time Altitude Azimuth Distance (km) Brightness Sun altitude
Rises 20:00:55 0° 324° (NW) 3,546 7.2 -15.5°
Reaches altitude 10° 20:03:27 10° 321° (NW) 2,602 6.4 -15.9°
Maximum altitude 20:09:24 64° 242° (WSW) 1,006 3.2 -16.7°
Enters shadow 20:13:55 18° 165° (SSE) 2,077 4.3 -17.4°
